Location: Powder Track
(41.8531°N, 72.3584°W)
Time: 09:18:58
(UTC+00:00)

Transit 4A - Pass Details

Date: 11 August 2021
Orbit: 871 x 974 km, 66.8° (Epoch: 20 September)

Event Time Altitude Azimuth Distance (km) Brightness Sun altitude
Rises 12:27:40 0° 318° (NW) 3,491 10.5 27.2°
Reaches altitude 10° 12:30:30 10° 307° (NW) 2,560 9.8 27.8°
Maximum altitude 12:35:18 26° 252° (WSW) 1,685 9.0 28.7°
Drops below altitude 10° 12:40:12 10° 198° (SSW) 2,601 10.2 29.6°
Sets 12:43:07 0° 186° (S) 3,557 11.0 30.1°
